Location: Bakov nad Jizerou
(50.4784°N, 14.9394°E)
Time: 15:34:23
(UTC+00:00)

Cosmos 1980 - Pass Details

Date: 16 June 2021
Orbit: 839 x 847 km, 71.0° (Epoch: 03 August)

Event Time Altitude Azimuth Distance (km) Brightness Sun altitude
Exits shadow 22:50:35 21° 207° (SSW) 1,817 4.9 -16.1°
Maximum altitude 22:54:31 89° 118° (ESE) 854 3.7 -16.1°
Drops below altitude 10° 23:00:15 10° 30° (NNE) 2,482 7.1 -16.1°
Sets 23:02:42 0° 30° (NNE) 3,422 7.9 -16.1°
